Time,TemperatureF,DewpointF,PressureIn,WindDirection,WindDirectionDegrees,WindSpeedMPH,WindSpeedGustMPH,Humidity,HourlyPrecipIn,Conditions,Clouds,dailyrainin,SoftwareType,DateUTC
2013-09-21 00:13:00,71.4,68.0,29.86,NNW,337,0.0,-999.0,89,-99.99,,,0.00,Acu-Link.com,2013-09-21 04:13:00,
2013-09-21 00:28:00,71.1,68.0,29.86,NNW,337,0.0,-999.0,90,-99.99,,,0.00,Acu-Link.com,2013-09-21 04:28:00,
2013-09-21 00:43:00,70.7,67.6,29.86,NNW,337,0.0,-999.0,90,-99.99,,,0.00,Acu-Link.com,2013-09-21 04:43:00,
2013-09-21 00:58:00,70.3,67.6,29.85,NNW,337,0.0,-999.0,91,-99.99,,,0.00,Acu-Link.com,2013-09-21 04:58:00,
2013-09-21 01:13:00,70.3,67.9,29.84,NNW,337,0.0,-999.0,92,-99.99,,,0.00,Acu-Link.com,2013-09-21 05:13:00,
2013-09-21 01:29:00,70.3,67.9,29.84,NNW,337,0.0,-999.0,92,-99.99,,,0.00,Acu-Link.com,2013-09-21 05:29:00,
2013-09-21 01:44:00,70.2,67.7,29.84,NNW,337,0.0,-999.0,92,-99.99,,,0.00,Acu-Link.com,2013-09-21 05:44:00,
2013-09-21 01:59:00,69.8,67.7,29.84,NNW,337,0.0,-999.0,93,-99.99,,,0.00,Acu-Link.com,2013-09-21 05:59:00,
2013-09-21 02:14:00,69.6,67.5,29.83,NNW,337,0.0,-999.0,93,-99.99,,,0.00,Acu-Link.com,2013-09-21 06:14:00,
2013-09-21 02:29:00,69.3,67.1,29.83,NNW,337,0.0,-999.0,93,-99.99,,,0.00,Acu-Link.com,2013-09-21 06:29:00,
2013-09-21 02:45:00,69.3,67.1,29.83,NNW,337,0.0,-999.0,93,-99.99,,,0.00,Acu-Link.com,2013-09-21 06:45:00,
2013-09-21 03:00:00,69.1,67.3,29.82,NNW,337,0.0,-999.0,94,-99.99,,,0.00,Acu-Link.com,2013-09-21 07:00:00,
2013-09-21 03:15:00,69.1,67.3,29.81,NNW,337,0.0,-999.0,94,-99.99,,,0.00,Acu-Link.com,2013-09-21 07:15:00,
2013-09-21 03:30:00,69.1,67.6,29.80,NNW,337,0.0,-999.0,95,-99.99,,,0.00,Acu-Link.com,2013-09-21 07:30:00,
2013-09-21 03:45:00,68.9,67.4,29.80,NNW,337,0.0,-999.0,95,-99.99,,,0.00,Acu-Link.com,2013-09-21 07:45:00,
2013-09-21 04:00:00,68.7,67.2,29.79,NNW,337,0.0,-999.0,95,-99.99,,,0.00,Acu-Link.com,2013-09-21 08:00:00,
2013-09-21 04:16:00,68.7,67.2,29.79,NNW,337,0.0,-999.0,95,-99.99,,,0.00,Acu-Link.com,2013-09-21 08:16:00,
2013-09-21 04:32:00,68.5,67.0,29.79,NNW,337,0.0,-999.0,95,-99.99,,,0.00,Acu-Link.com,2013-09-21 08:32:00,
2013-09-21 04:48:00,68.5,67.0,29.79,NNW,337,0.0,-999.0,95,-99.99,,,0.00,Acu-Link.com,2013-09-21 08:48:00,
2013-09-21 05:03:00,68.5,67.0,29.78,NNW,337,0.0,-999.0,95,-99.99,,,0.00,Acu-Link.com,2013-09-21 09:03:00,
2013-09-21 05:18:00,68.4,66.9,29.78,NNW,337,0.0,-999.0,95,-99.99,,,0.00,Acu-Link.com,2013-09-21 09:18:00,
2013-09-21 05:33:00,68.2,66.7,29.77,NNW,337,0.0,-999.0,95,-99.99,,,0.00,Acu-Link.com,2013-09-21 09:33:00,
2013-09-21 05:48:00,67.6,66.2,29.78,NNW,337,0.0,-999.0,95,-99.99,,,0.00,Acu-Link.com,2013-09-21 09:48:00,
2013-09-21 06:03:00,67.6,66.2,29.78,NNW,337,0.0,-999.0,95,-99.99,,,0.00,Acu-Link.com,2013-09-21 10:03:00,
2013-09-21 06:19:00,67.5,66.0,29.78,NNW,337,0.0,-999.0,95,-99.99,,,0.00,Acu-Link.com,2013-09-21 10:19:00,
2013-09-21 06:34:00,67.5,66.0,29.78,NNW,337,0.0,-999.0,95,-99.99,,,0.00,Acu-Link.com,2013-09-21 10:34:00,
2013-09-21 06:49:00,67.1,65.9,29.78,NNW,337,0.0,-999.0,96,-99.99,,,0.00,Acu-Link.com,2013-09-21 10:49:00,
2013-09-21 07:04:00,66.9,65.7,29.78,NNW,337,0.0,-999.0,96,-99.99,,,0.00,Acu-Link.com,2013-09-21 11:04:00,
2013-09-21 07:19:00,67.1,65.9,29.78,NNW,337,0.0,-999.0,96,-99.99,,,0.00,Acu-Link.com,2013-09-21 11:19:00,
2013-09-21 07:34:00,67.3,66.1,29.78,NNW,337,0.0,-999.0,96,-99.99,,,0.00,Acu-Link.com,2013-09-21 11:34:00,
2013-09-21 07:49:00,67.3,66.1,29.78,NNW,337,0.0,-999.0,96,-99.99,,,0.00,Acu-Link.com,2013-09-21 11:49:00,
2013-09-21 08:04:00,68.2,67.0,29.79,NNW,337,0.0,-999.0,96,-99.99,,,0.00,Acu-Link.com,2013-09-21 12:04:00,
2013-09-21 08:19:00,69.6,68.7,29.79,NNW,337,0.0,-999.0,97,-99.99,,,0.00,Acu-Link.com,2013-09-21 12:19:00,
2013-09-21 08:35:00,70.7,69.8,29.80,NNW,337,0.0,-999.0,97,-99.99,,,0.00,Acu-Link.com,2013-09-21 12:35:00,
2013-09-21 08:50:00,71.8,70.0,29.80,NNW,337,0.0,-999.0,94,-99.99,,,0.00,Acu-Link.com,2013-09-21 12:50:00,
2013-09-21 09:05:00,73.6,70.8,29.81,NNW,337,0.0,-999.0,91,-99.99,,,0.00,Acu-Link.com,2013-09-21 13:05:00,
2013-09-21 09:20:00,76.1,70.9,29.81,ESE,112,2.7,-999.0,84,-99.99,,,0.00,Acu-Link.com,2013-09-21 13:20:00,
2013-09-21 09:35:00,77.2,71.6,29.81,NW,315,0.0,-999.0,83,-99.99,,,0.00,Acu-Link.com,2013-09-21 13:35:00,
2013-09-21 09:51:00,78.6,71.5,29.81,SSW,202,2.7,-999.0,79,-99.99,,,0.00,Acu-Link.com,2013-09-21 13:51:00,
2013-09-21 10:06:00,79.5,72.0,29.80,ESE,112,2.2,-999.0,78,-99.99,,,0.00,Acu-Link.com,2013-09-21 14:06:00,
2013-09-21 10:21:00,80.1,71.8,29.80,East,90,2.7,-999.0,76,-99.99,,,0.00,Acu-Link.com,2013-09-21 14:21:00,
2013-09-21 10:36:00,81.1,71.6,29.80,ESE,112,2.7,-999.0,73,-99.99,,,0.00,Acu-Link.com,2013-09-21 14:36:00,
2013-09-21 10:51:00,82.0,71.3,29.79,ENE,67,0.0,-999.0,70,-99.99,,,0.00,Acu-Link.com,2013-09-21 14:51:00,
2013-09-21 11:06:00,82.0,70.8,29.79,East,90,1.6,-999.0,69,-99.99,,,0.00,Acu-Link.com,2013-09-21 15:06:00,
2013-09-21 11:21:00,84.6,71.5,29.78,SSE,157,7.4,-999.0,65,-99.99,,,0.00,Acu-Link.com,2013-09-21 15:21:00,
2013-09-21 11:36:00,84.6,71.9,29.78,South,180,0.0,-999.0,66,-99.99,,,0.00,Acu-Link.com,2013-09-21 15:36:00,
2013-09-21 11:51:00,86.5,71.5,29.78,SE,135,2.7,-999.0,61,-99.99,,,0.00,Acu-Link.com,2013-09-21 15:51:00,
2013-09-21 12:06:00,84.7,71.2,29.78,SSE,157,3.8,-999.0,64,-99.99,,,0.00,Acu-Link.com,2013-09-21 16:06:00,
2013-09-21 12:22:00,84.0,70.5,29.78,WNW,292,0.0,-999.0,64,-99.99,,,0.00,Acu-Link.com,2013-09-21 16:22:00,
2013-09-21 12:37:00,82.9,71.3,29.77,East,90,2.7,-999.0,68,-99.99,,,0.00,Acu-Link.com,2013-09-21 16:37:00,
2013-09-21 12:52:00,83.3,70.7,29.77,ESE,112,1.1,-999.0,66,-99.99,,,0.00,Acu-Link.com,2013-09-21 16:52:00,
2013-09-21 13:07:00,85.8,71.7,29.76,ESE,112,1.6,-999.0,63,-99.99,,,0.00,Acu-Link.com,2013-09-21 17:07:00,
2013-09-21 13:22:00,89.6,72.3,29.76,South,180,2.7,-999.0,57,-99.99,,,0.00,Acu-Link.com,2013-09-21 17:22:00,
2013-09-21 13:37:00,89.8,71.4,29.76,SE,135,3.8,-999.0,55,-99.99,,,0.00,Acu-Link.com,2013-09-21 17:37:00,
2013-09-21 13:53:00,87.6,69.9,29.75,NNE,22,0.0,-999.0,56,-99.99,,,0.00,Acu-Link.com,2013-09-21 17:53:00,
2013-09-21 14:08:00,87.8,70.6,29.75,ESE,112,1.6,-999.0,57,-99.99,,,0.00,Acu-Link.com,2013-09-21 18:08:00,
2013-09-21 14:23:00,90.3,71.4,29.74,SSE,157,4.3,-999.0,54,-99.99,,,0.00,Acu-Link.com,2013-09-21 18:23:00,
2013-09-21 14:38:00,92.3,70.3,29.74,ESE,112,7.4,-999.0,49,-99.99,,,0.00,Acu-Link.com,2013-09-21 18:38:00,
2013-09-21 14:53:00,90.0,70.5,29.72,South,180,5.8,-999.0,53,-99.99,,,0.00,Acu-Link.com,2013-09-21 18:53:00,
2013-09-21 15:08:00,90.5,69.9,29.71,ESE,112,2.2,-999.0,51,-99.99,,,0.00,Acu-Link.com,2013-09-21 19:08:00,
2013-09-21 15:24:00,90.0,68.8,29.70,South,180,3.1,-999.0,50,-99.99,,,0.00,Acu-Link.com,2013-09-21 19:24:00,
2013-09-21 15:39:00,91.4,67.0,29.70,South,180,3.1,-999.0,45,-99.99,,,0.00,Acu-Link.com,2013-09-21 19:39:00,
2013-09-21 15:54:00,91.2,66.9,29.69,ESE,112,4.7,-999.0,45,-99.99,,,0.00,Acu-Link.com,2013-09-21 19:54:00,
2013-09-21 16:09:00,90.0,67.0,29.69,ENE,67,2.2,-999.0,47,-99.99,,,0.00,Acu-Link.com,2013-09-21 20:09:00,
2013-09-21 16:25:00,88.5,67.5,29.69,South,180,3.1,-999.0,50,-99.99,,,0.00,Acu-Link.com,2013-09-21 20:25:00,
2013-09-21 16:40:00,88.0,67.0,29.68,North,0,1.1,-999.0,50,-99.99,,,0.00,Acu-Link.com,2013-09-21 20:40:00,
2013-09-21 16:55:00,91.4,67.7,29.67,West,270,0.0,-999.0,46,-99.99,,,0.00,Acu-Link.com,2013-09-21 20:55:00,
2013-09-21 17:11:00,89.4,67.7,29.68,South,180,3.8,-999.0,49,-99.99,,,0.00,Acu-Link.com,2013-09-21 21:11:00,
2013-09-21 17:26:00,89.2,68.1,29.67,SSE,157,0.0,-999.0,50,-99.99,,,0.00,Acu-Link.com,2013-09-21 21:26:00,
2013-09-21 17:41:00,88.9,68.4,29.67,SSW,202,2.2,-999.0,51,-99.99,,,0.00,Acu-Link.com,2013-09-21 21:41:00,
2013-09-21 17:56:00,90.3,69.1,29.67,SSW,202,0.0,-999.0,50,-99.99,,,0.00,Acu-Link.com,2013-09-21 21:56:00,
2013-09-21 18:11:00,88.0,69.8,29.67,ESE,112,0.0,-999.0,55,-99.99,,,0.00,Acu-Link.com,2013-09-21 22:11:00,
2013-09-21 18:26:00,86.9,69.3,29.67,SSE,157,4.3,-999.0,56,-99.99,,,0.00,Acu-Link.com,2013-09-21 22:26:00,
2013-09-21 18:41:00,86.5,69.5,29.67,ESE,112,1.6,-999.0,57,-99.99,,,0.00,Acu-Link.com,2013-09-21 22:41:00,
2013-09-21 18:57:00,86.2,69.1,29.67,SSW,202,3.1,-999.0,57,-99.99,,,0.00,Acu-Link.com,2013-09-21 22:57:00,
2013-09-21 19:12:00,85.5,69.5,29.67,WNW,292,1.6,-999.0,59,-99.99,,,0.00,Acu-Link.com,2013-09-21 23:12:00,
2013-09-21 19:27:00,84.7,69.3,29.68,SW,225,0.0,-999.0,60,-99.99,,,0.00,Acu-Link.com,2013-09-21 23:27:00,
2013-09-21 19:42:00,84.0,69.6,29.68,ESE,112,0.0,-999.0,62,-99.99,,,0.00,Acu-Link.com,2013-09-21 23:42:00,
2013-09-21 19:57:00,83.1,70.1,29.68,West,270,0.0,-999.0,65,-99.99,,,0.00,Acu-Link.com,2013-09-21 23:57:00,
2013-09-21 20:12:00,82.6,70.5,29.68,East,90,5.1,-999.0,67,-99.99,,,0.00,Acu-Link.com,2013-09-22 00:12:00,
2013-09-21 20:27:00,82.2,70.6,29.69,ENE,67,2.7,-999.0,68,-99.99,,,0.00,Acu-Link.com,2013-09-22 00:27:00,
2013-09-21 20:42:00,81.9,71.1,29.69,ESE,112,4.3,-999.0,70,-99.99,,,0.00,Acu-Link.com,2013-09-22 00:42:00,
2013-09-21 20:57:00,81.5,70.7,29.69,East,90,3.8,-999.0,70,-99.99,,,0.00,Acu-Link.com,2013-09-22 00:57:00,
2013-09-21 21:13:00,81.1,70.4,29.69,ESE,112,3.1,-999.0,70,-99.99,,,0.00,Acu-Link.com,2013-09-22 01:13:00,
2013-09-21 21:28:00,80.8,70.1,29.71,ESE,112,1.6,-999.0,70,-99.99,,,0.00,Acu-Link.com,2013-09-22 01:28:00,
2013-09-21 21:43:00,80.4,70.1,29.71,ESE,112,0.0,-999.0,71,-99.99,,,0.00,Acu-Link.com,2013-09-22 01:43:00,
2013-09-21 21:59:00,79.9,70.4,29.72,ESE,112,0.0,-999.0,73,-99.99,,,0.00,Acu-Link.com,2013-09-22 01:59:00,
2013-09-21 22:14:00,79.3,70.3,29.72,ENE,67,0.0,-999.0,74,-99.99,,,0.00,Acu-Link.com,2013-09-22 02:14:00,
2013-09-21 22:29:00,79.0,70.4,29.72,South,180,0.0,-999.0,75,-99.99,,,0.00,Acu-Link.com,2013-09-22 02:29:00,
2013-09-21 22:44:00,78.3,70.4,29.72,East,90,0.0,-999.0,77,-99.99,,,0.00,Acu-Link.com,2013-09-22 02:44:00,
2013-09-21 23:00:00,77.7,70.7,29.72,SE,135,0.0,-999.0,79,-99.99,,,0.00,Acu-Link.com,2013-09-22 03:00:00,
2013-09-21 23:15:00,77.7,70.7,29.71,NNW,337,0.0,-999.0,79,-99.99,,,0.00,Acu-Link.com,2013-09-22 03:15:00,
2013-09-21 23:30:00,77.4,70.3,29.71,NNW,337,0.0,-999.0,79,-99.99,,,0.00,Acu-Link.com,2013-09-22 03:30:00,
2013-09-21 23:45:00,76.8,70.2,29.72,NNW,337,0.0,-999.0,80,-99.99,,,0.00,Acu-Link.com,2013-09-22 03:45:00,